User: anonymous   Login
Location: ?????
(42.2640°N, 43.4211°E)
Time: 12:18:46
(UTC+00:00)
Language:

CZ-4C R/B - Orbit

View from above orbital plane
View from above orbital plane
View from above satellite
View from above satellite

Ground track
Ground track

The orbit data is extracted from the following two-line orbital elements,

1 32290U 07055B   20293.71135075 +.00001858 +00000-0 +47760-4 0  9998
2 32290 097.6661 094.6697 0061654 092.1718 268.6588 15.38798303719292
Epoch (UTC): 19 October 2020 17:04:20
Eccentricity: 0.0061654
inclination: 97.6661°
perigee height: 407 km
apogee height: 492 km
right ascension of ascending node: 94.6697°
argument of perigee: 92.1718°
revolutions per day: 15.38798303
mean anomaly at epoch: 268.6588°
orbit number at epoch: 71929

The dashed part of the orbit path shows where the satellite is in the earth's shadow,  

DLR